Location: Alpha Ridge Park
(39.3209°N, 76.9128°W)
Time: 21:26:04
(UTC-04:00)

Vanguard 2 Rocket - All Passes

Search period start: 21 May 2019 00:00
Search period end: 31 May 2019 00:00
Orbit: 555 x 3325 km, 32.9° (Epoch: 20 May)

Date Brightness Start Highest point End Pass type
(mag) Time Alt. Az. Time Alt. Az. Time Alt. Az.
21 May - 05:09:42 10° SSW 05:24:17 28° SSE 05:35:15 10° E visible
21 May - 07:24:05 10° SW 07:40:11 49° SSE 07:49:58 10° E daylight
21 May - 09:42:02 10° WSW 09:55:09 60° S 10:02:26 10° ESE daylight
21 May - 12:00:06 10° W 12:08:30 39° SSW 12:13:40 10° SE daylight
22 May - 04:10:17 10° S 04:23:13 22° SE 04:33:56 10° ESE visible
22 May - 06:22:26 10° SW 06:39:20 44° SSE 06:50:26 10° E daylight
22 May - 08:39:44 10° WSW 08:54:56 61° S 09:03:32 10° E daylight
22 May - 10:58:16 10° W 11:09:07 51° SSW 11:15:19 10° ESE daylight
22 May - 13:16:37 10° WSW 13:21:16 18° SW 13:24:48 10° S daylight
23 May - 03:12:39 10° SSE 03:22:09 15° SE 03:30:48 10° ESE visible
23 May - 05:21:20 10° SSW 05:38:15 38° SSE 05:50:27 10° E visible
23 May - 07:37:26 10° WSW 07:54:21 58° S 08:04:24 10° E daylight
23 May - 09:56:05 10° W 10:09:20 60° S 10:16:41 10° ESE daylight
23 May - 12:14:34 10° W 12:22:20 30° SSW 12:27:22 10° SSE daylight
24 May - 04:21:00 10° SSW 04:37:01 31° SSE 04:49:50 10° E visible
24 May - 06:35:23 10° SW 06:53:25 54° SSE 07:04:59 10° E daylight
24 May - 08:53:39 10° WSW 09:09:08 64° S 09:17:51 10° ESE daylight
24 May - 11:12:31 10° W 11:23:05 43° SSW 11:29:18 10° SE daylight
24 May - 13:33:11 10° WSW 13:34:45 11° SW 13:36:10 10° SSW daylight
25 May - 03:21:42 10° S 03:35:49 24° SE 03:48:13 10° E visible
25 May - 05:33:48 10° SW 05:52:11 48° SSE 06:05:10 10° E daylight
25 May - 07:51:08 10° WSW 08:08:31 64° S 08:18:45 10° E daylight
25 May - 10:10:14 10° W 10:23:25 55° SSW 10:30:50 10° ESE daylight
25 May - 12:29:22 10° W 12:35:56 21° SW 12:40:33 10° S daylight
26 May - 02:24:04 10° S 02:34:43 17° SE 02:44:54 10° ESE visible
26 May - 04:32:53 10° SSW 04:50:48 41° SSE 05:04:52 10° E visible
26 May - 06:48:48 10° WSW 07:07:30 62° S 07:19:22 10° E daylight
26 May - 09:07:42 10° W 09:23:17 63° S 09:32:05 10° ESE daylight
26 May - 11:26:55 10° W 11:36:50 34° SSW 11:42:58 10° SSE daylight
27 May - 03:32:48 10° SSW 03:49:24 34° SE 04:03:52 10° E visible
27 May - 05:46:52 10° SW 06:06:09 57° SSE 06:19:38 10° E daylight
27 May - 08:05:04 10° W 08:22:40 67° S 08:33:02 10° ESE daylight
27 May - 10:24:26 10° W 10:37:20 47° SSW 10:44:47 10° SE daylight
27 May - 12:45:08 10° WSW 12:49:18 14° SW 12:52:39 10° SSW daylight
28 May - 02:33:44 10° S 02:48:09 26° SE 03:01:53 10° E visible
28 May - 04:45:31 10° SW 05:04:35 51° SSE 05:19:29 10° E visible
28 May - 07:02:32 10° WSW 07:21:37 67° S 07:33:40 10° E daylight
28 May - 09:21:49 10° W 09:37:19 58° SSW 09:46:11 10° ESE daylight
28 May - 11:41:37 10° W 11:50:21 25° SW 11:56:10 10° SSE daylight
29 May - 01:36:17 10° SSE 01:47:09 18° SE 01:58:12 10° E visible
29 May - 03:44:54 10° SSW 04:02:59 43° SSE 04:18:47 10° E visible
29 May - 06:00:21 10° WSW 06:20:10 64° SSE 06:33:58 10° E daylight
29 May - 08:19:07 10° W 08:36:47 65° S 08:47:13 10° ESE daylight
29 May - 10:38:46 10° W 10:51:01 38° SSW 10:58:25 10° SSE daylight
30 May - 00:44:46 10° SE 00:46:29 10° SE 00:48:14 10° ESE visible
30 May - 02:45:08 10° SSW 03:01:31 35° SE 03:17:22 10° E visible
30 May - 04:58:42 10° SW 05:18:27 60° SSE 05:33:53 10° E visible
30 May - 07:16:28 10° W 07:35:43 69° S 07:47:55 10° ESE daylight
30 May - 09:36:00 10° W 09:51:10 50° SSW 10:00:04 10° SE daylight
30 May - 11:57:02 10° W 12:03:36 17° SW 12:08:31 10° S daylight
